Anita, PA

9:28 AM EST on February 13, 2016 (GMT -0500)
Du Bois-Jefferson County

Weather History for KDUJ - August, 2012

Change the Weather History Date:

Thursday, August 2, 2012

  Actual Average Record
Temperature  
Mean Temperature 70 °F 68 °F  
Max Temperature 81 °F 79 °F 94 °F (1975)
Min Temperature 58 °F 58 °F 45 °F (1976)
Degree Days  
Heating Degree Days 0 1  
Month to date heating degree days 0 2  
Since 1 June heating degree days 81 111  
Since 1 July heating degree days 2 26  
Cooling Degree Days 5 4  
Month to date cooling degree days 10 8  
Year to date cooling degree days 395 233  
Since 1 June cooling degree days 324 210  
Growing Degree Days 20 (Base 50)    
Moisture  
Dew Point 58 °F    
Average Humidity 69    
Maximum Humidity 93    
Minimum Humidity 45    
Precipitation  
Precipitation 0.00 in 0.14 in 1.14 in (1980)
Month to date precipitation 0.00 0.28  
Sea Level Pressure  
Sea Level Pressure 29.93 in    
Wind  
Wind Speed 4 mph (West)    
Max Wind Speed 14 mph    
Max Gust Speed 18 mph    
Visibility 10 miles    
Events      
T = Trace of Precipitation, MM = Missing Value Source: NWS Daily Summary

Daily Weather History Graph

Daily Weather History Graph

Search for Another Location

Airport or City:

Trip Planner

Search our weather history database for the weather conditions in past years. The results will help you decide how hot, cold, wet, or windy it might be!

Date:

Astronomy

Aug. 02, 2012 Rise Set
Actual Time 6:12 AM EDT 8:30 PM EDT
Civil Twilight 5:41 AM EDT 9:01 PM EDT
Nautical Twilight 5:03 AM EDT 9:39 PM EDT
Astronomical Twilight 4:21 AM EDT 10:21 PM EDT
Moon 8:34 PM EDT (8/2) 6:48 AM EDT (8/2)
Length of Visible Light 15h 19m
Length of Day
14h 17m
Full, 100% of the Moon is Illuminated
Aug 2
Full
Aug 9
Last Quarter
Aug 17
New
Aug 24
First Quarter
Aug 31
Full

Hourly Weather History & Observations

Time (EDT) Temp. Heat Index Dew Point Humidity Pressure Visibility Wind Dir Wind Speed Gust Speed Precip Events Conditions
12:56 AM 64.0 °F - 55.0 °F 73% 29.91 in 10.0 mi Calm Calm - N/A   Clear
1:56 AM 61.0 °F - 55.0 °F 81% 29.90 in 10.0 mi Calm Calm - N/A   Clear
2:56 AM 63.0 °F - 55.9 °F 78% 29.89 in 10.0 mi NNE 4.6 mph - N/A   Clear
3:56 AM 62.1 °F - 57.0 °F 84% 29.90 in 10.0 mi Calm Calm - N/A   Clear
4:56 AM 60.1 °F - 57.0 °F 90% 29.90 in 10.0 mi North 3.5 mph - N/A   Clear
5:56 AM 59.0 °F - 55.9 °F 90% 29.91 in 10.0 mi Calm Calm - N/A   Clear
6:56 AM 59.0 °F - 57.0 °F 93% 29.93 in 5.0 mi Calm Calm - N/A   Clear
7:56 AM 63.0 °F - 59.0 °F 87% 29.92 in 10.0 mi East 3.5 mph - N/A   Clear
8:56 AM 69.1 °F - 62.1 °F 78% 29.93 in 10.0 mi Calm Calm - N/A   Clear
9:56 AM 72.0 °F - 59.0 °F 64% 29.93 in 10.0 mi Variable 3.5 mph - N/A   Clear
10:56 AM 75.2 °F - 57.2 °F 53% 29.97 in 10.0 mi SW 6.9 mph - N/A   Clear
11:56 AM 77.0 °F - 59.0 °F 54% 29.93 in 10.0 mi West 8.1 mph - N/A   Partly Cloudy
12:56 PM 78.1 °F - 57.9 °F 50% 29.94 in 10.0 mi West 10.4 mph - N/A   Clear
1:56 PM 79.0 °F - 59.0 °F 50% 29.95 in 10.0 mi WNW 9.2 mph 18.4 mph N/A   Clear
2:56 PM 80.1 °F 80.6 °F 57.9 °F 47% 29.93 in 10.0 mi WSW 9.2 mph - N/A   Clear
3:56 PM 79.0 °F - 57.9 °F 48% 29.92 in 10.0 mi SW 4.6 mph - N/A   Clear
4:56 PM 80.1 °F 80.6 °F 57.9 °F 47% 29.91 in 10.0 mi SW 8.1 mph - N/A   Clear
5:56 PM 80.1 °F 80.9 °F 60.1 °F 50% 29.91 in 10.0 mi West 4.6 mph - N/A   Clear
6:56 PM 78.1 °F - 59.0 °F 52% 29.92 in 10.0 mi WSW 5.8 mph - N/A   Clear
7:56 PM 77.0 °F - 59.0 °F 54% 29.93 in 10.0 mi West 3.5 mph - N/A   Clear
8:56 PM 70.0 °F - 60.1 °F 71% 29.93 in 10.0 mi Calm Calm - N/A   Clear
9:56 PM 71.1 °F - 59.0 °F 66% 29.94 in 10.0 mi Calm Calm - N/A   Clear
10:56 PM 68.0 °F - 60.1 °F 76% 29.95 in 10.0 mi Calm Calm - N/A   Clear
11:56 PM 66.0 °F - 59.0 °F 78% 29.95 in 10.0 mi East 3.5 mph - N/A   Clear